"Sample Date","Sample Time","Sensor Name","Sample Value","Units","Flow Rate","Sample Interval","Sample Volume","Laser Status","Number Channels","Micron Size 0","Counts/Channel 0","Micron Size 1","Counts/Channel 1","Micron Size 2","Counts/Channel 2","Micron Size 3","Counts/Channel 3","Micron Size 4","Counts/Channel 4","Micron Size 5","Counts/Channel 5","Micron Size 6","Counts/Channel 6","Micron Size 7","Counts/Channel 7","Micron Size 8","Counts/Channel 8","Micron Size 9","Counts/Channel 9","Micron Size 10","Counts/Channel 10","Micron Size 11","Counts/Channel 11","Micron Size 12","Counts/Channel 12","Micron Size 13","Counts/Channel 13","Micron Size 14","Counts/Channel 14","Micron Size 15","Counts/Channel 15","Micron Size 16","Counts/Channel 16","Micron Size 17","Counts/Channel 17","Micron Size 18","Counts/Channel 18","Micron Size 19","Counts/Channel 19","Micron Size 20","Counts/Channel 20","Micron Size 21","Counts/Channel 21","Micron Size 22","Counts/Channel 22","Micron Size 23","Counts/Channel 23","Micron Size 24","Counts/Channel 24","Micron Size 25","Counts/Channel 25","Micron Size 26","Counts/Channel 26","Micron Size 27","Counts/Channel 27","Micron Size 28","Counts/Channel 28","Micron Size 29","Counts/Channel 29","Micron Size 30","Counts/Channel 30","Micron Size 31","Counts/Channel 31"
"07/05/06","18:00:01","AMMA06",42916.000,"cc",28285.984,6.00,2828.599,1,6,0.100,24131.000,0.200,15761.000,0.300,2114.000,0.500,541.000,1.000,369.000,5.000,0
"07/05/06","18:00:07","AMMA06",42842.000,"cc",28279.129,6.00,2827.913,1,6,0.100,24095.000,0.200,15651.000,0.300,2168.000,0.500,541.000,1.000,387.000,5.000,0
"07/05/06","18:00:13","AMMA06",43263.000,"cc",28373.172,6.00,2837.317,1,6,0.100,24497.000,0.200,15667.000,0.300,2130.000,0.500,588.000,1.000,381.000,5.000,0
"07/05/06","18:00:19","AMMA06",42750.000,"cc",28282.408,6.00,2828.241,1,6,0.100,24093.000,0.200,15731.000,0.300,2070.000,0.500,516.000,1.000,340.000,5.000,0
"07/05/06","18:00:25","AMMA06",42443.000,"cc",28347.066,6.00,2834.707,1,6,0.100,24126.000,0.200,15378.000,0.300,2050.000,0.500,567.000,1.000,322.000,5.000,0
"07/05/06","18:00:31","AMMA06",42718.000,"cc",28267.205,6.00,2826.721,1,6,0.100,24071.000,0.200,15762.000,0.300,2048.000,0.500,526.000,1.000,311.000,5.000,0
"07/05/06","18:00:37","AMMA06",42929.000,"cc",28321.479,6.00,2832.148,1,6,0.100,24425.000,0.200,15614.000,0.300,2025.000,0.500,535.000,1.000,330.000,5.000,0
"07/05/06","18:00:43","AMMA06",42705.000,"cc",28324.227,6.00,2832.423,1,6,0.100,24235.000,0.200,15496.000,0.300,2119.000,0.500,535.000,1.000,320.000,5.000,0
"07/05/06","18:00:49","AMMA06",43336.000,"cc",28308.061,6.00,2830.806,1,6,0.100,24419.000,0.200,15727.000,0.300,2224.000,0.500,615.000,1.000,351.000,5.000,0
"07/05/06","18:00:55","AMMA06",43367.000,"cc",28341.775,6.00,2834.178,1,6,0.100,24411.000,0.200,15727.000,0.300,2262.000,0.500,639.000,1.000,328.000,5.000,0
"07/05/06","18:01:01","AMMA06",43177.000,"cc",28383.063,6.00,2838.306,1,6,0.100,24480.000,0.200,15606.000,0.300,2154.000,0.500,596.000,1.000,341.000,5.000,0
"07/05/06","18:01:07","AMMA06",42411.000,"cc",28245.898,6.00,2824.590,1,6,0.100,24015.000,0.200,15463.000,0.300,2047.000,0.500,548.000,1.000,338.000,5.000,0
"07/05/06","18:01:13","AMMA06",42810.000,"cc",28327.721,6.00,2832.772,1,6,0.100,24336.000,0.200,15557.000,0.300,2027.000,0.500,537.000,1.000,353.000,5.000,0
"07/05/06","18:01:19","AMMA06",42702.000,"cc",28313.543,6.00,2831.355,1,6,0.100,24135.000,0.200,15617.000,0.300,2053.000,0.500,536.000,1.000,361.000,5.000,0
"07/05/06","18:01:25","AMMA06",42735.000,"cc",28286.846,6.00,2828.685,1,6,0.100,24329.000,0.200,15386.000,0.300,2136.000,0.500,545.000,1.000,339.000,5.000,0
"07/05/06","18:01:31","AMMA06",42690.000,"cc",28315.299,6.00,2831.530,1,6,0.100,24299.000,0.200,15536.000,0.300,2023.000,0.500,501.000,1.000,331.000,5.000,0
"07/05/06","18:01:37","AMMA06",43489.000,"cc",28328.766,6.00,2832.877,1,6,0.100,24586.000,0.200,15716.000,0.300,2177.000,0.500,608.000,1.000,402.000,5.000,0
"07/05/06","18:01:43","AMMA06",43278.000,"cc",28313.922,6.00,2831.392,1,6,0.100,24457.000,0.200,15646.000,0.300,2157.000,0.500,660.000,1.000,358.000,5.000,0
"07/05/06","18:01:49","AMMA06",42920.000,"cc",28286.764,6.00,2828.677,1,6,0.100,24504.000,0.200,15411.000,0.300,2074.000,0.500,572.000,1.000,359.000,5.000,0
"07/05/06","18:01:55","AMMA06",44517.000,"cc",28323.406,6.00,2832.341,1,6,0.100,25078.000,0.200,15893.000,0.300,2403.000,0.500,757.000,1.000,386.000,5.000,0
"07/05/06","18:02:01","AMMA06",42923.000,"cc",28290.342,6.00,2829.034,1,6,0.100,24244.000,0.200,15568.000,0.300,2151.000,0.500,604.000,1.000,356.000,5.000,0
"07/05/06","18:02:07","AMMA06",43050.000,"cc",28343.656,6.00,2834.366,1,6,0.100,24645.000,0.200,15373.000,0.300,2113.000,0.500,547.000,1.000,372.000,5.000,0
"07/05/06","18:02:13","AMMA06",42667.000,"cc",28317.051,6.00,2831.705,1,6,0.100,24419.000,0.200,15325.000,0.300,2030.000,0.500,576.000,1.000,317.000,5.000,0
"07/05/06","18:02:19","AMMA06",42930.000,"cc",28322.440,6.00,2832.244,1,6,0.100,24481.000,0.200,15356.000,0.300,2163.000,0.500,574.000,1.000,356.000,5.000,0
"07/05/06","18:02:25","AMMA06",43243.000,"cc",28356.043,6.00,2835.605,1,6,0.100,24679.000,0.200,15405.000,0.300,2193.000,0.500,593.000,1.000,373.000,5.000,0
"07/05/06","18:02:31","AMMA06",43075.000,"cc",28304.352,6.00,2830.435,1,6,0.100,24396.000,0.200,15600.000,0.300,2106.000,0.500,603.000,1.000,370.000,5.000,0
"07/05/06","18:02:37","AMMA06",42375.000,"cc",28321.074,6.00,2832.108,1,6,0.100,24071.000,0.200,15382.000,0.300,1991.000,0.500,573.000,1.000,358.000,5.000,0
"07/05/06","18:02:43","AMMA06",42619.000,"cc",28304.801,6.00,2830.480,1,6,0.100,24173.000,0.200,15427.000,0.300,2076.000,0.500,586.000,1.000,357.000,5.000,0
"07/05/06","18:02:49","AMMA06",43576.000,"cc",28340.131,6.00,2834.013,1,6,0.100,24492.000,0.200,15676.000,0.300,2357.000,0.500,669.000,1.000,382.000,5.000,0
"07/05/06","18:02:55","AMMA06",42879.000,"cc",28339.410,6.00,2833.941,1,6,0.100,24401.000,0.200,15447.000,0.300,2061.000,0.500,625.000,1.000,345.000,5.000,0
"07/05/06","18:03:01","AMMA06",42908.000,"cc",28301.719,6.00,2830.172,1,6,0.100,24331.000,0.200,15487.000,0.300,2088.000,0.500,631.000,1.000,371.000,5.000,0
"07/05/06","18:03:07","AMMA06",43384.000,"cc",28298.701,6.00,2829.870,1,6,0.100,24751.000,0.200,15624.000,0.300,2087.000,0.500,610.000,1.000,312.000,5.000,0
"07/05/06","18:03:13","AMMA06",42692.000,"cc",28329.981,6.00,2832.998,1,6,0.100,24429.000,0.200,15178.000,0.300,2157.000,0.500,572.000,1.000,355.000,5.000,1.000
"07/05/06","18:03:19","AMMA06",42286.000,"cc",28319.168,6.00,2831.917,1,6,0.100,24011.000,0.200,15272.000,0.300,2081.000,0.500,580.000,1.000,342.000,5.000,0
"07/05/06","18:03:25","AMMA06",42151.000,"cc",28271.246,6.00,2827.125,1,6,0.100,24079.000,0.200,15200.000,0.300,2003.000,0.500,543.000,1.000,326.000,5.000,0
"07/05/06","18:03:31","AMMA06",42781.000,"cc",28328.912,6.00,2832.891,1,6,0.100,24413.000,0.200,15323.000,0.300,2089.000,0.500,591.000,1.000,365.000,5.000,0
"07/05/06","18:03:37","AMMA06",42598.000,"cc",28336.805,6.00,2833.681,1,6,0.100,24344.000,0.200,15390.000,0.300,1973.000,0.500,545.000,1.000,346.000,5.000,0
"07/05/06","18:03:43","AMMA06",44013.000,"cc",28297.725,6.00,2829.773,1,6,0.100,24848.000,0.200,15642.000,0.300,2398.000,0.500,710.000,1.000,415.000,5.000,0
"07/05/06","18:03:49","AMMA06",42396.000,"cc",28301.025,6.00,2830.103,1,6,0.100,24105.000,0.200,15356.000,0.300,2051.000,0.500,540.000,1.000,344.000,5.000,0
"07/05/06","18:03:55","AMMA06",42939.000,"cc",28300.875,6.00,2830.088,1,6,0.100,24411.000,0.200,15476.000,0.300,2085.000,0.500,599.000,1.000,368.000,5.000,0
"07/05/06","18:04:01","AMMA06",42036.000,"cc",28325.551,6.00,2832.555,1,6,0.100,23957.000,0.200,15425.000,0.300,1902.000,0.500,463.000,1.000,289.000,5.000,0
"07/05/06","18:04:07","AMMA06",46326.000,"cc",28306.195,6.00,2830.620,1,6,0.100,25810.000,0.200,16078.000,0.300,2852.000,0.500,1043.000,1.000,543.000,5.000,0
"07/05/06","18:04:13","AMMA06",43449.000,"cc",28382.768,6.00,2838.277,1,6,0.100,24506.000,0.200,15626.000,0.300,2216.000,0.500,673.000,1.000,428.000,5.000,0
"07/05/06","18:04:19","AMMA06",42482.000,"cc",28338.578,6.00,2833.858,1,6,0.100,24248.000,0.200,15300.000,0.300,2051.000,0.500,558.000,1.000,325.000,5.000,0
"07/05/06","18:04:25","AMMA06",42377.000,"cc",28290.125,6.00,2829.013,1,6,0.100,24343.000,0.200,15244.000,0.300,1950.000,0.500,514.000,1.000,326.000,5.000,0
"07/05/06","18:04:31","AMMA06",42330.000,"cc",28296.354,6.00,2829.636,1,6,0.100,24413.000,0.200,15131.000,0.300,1969.000,0.500,513.000,1.000,304.000,5.000,0
"07/05/06","18:04:37","AMMA06",41962.000,"cc",28350.916,6.00,2835.092,1,6,0.100,24081.000,0.200,15165.000,0.300,1925.000,0.500,506.000,1.000,285.000,5.000,0
"07/05/06","18:04:43","AMMA06",42307.000,"cc",28327.488,6.00,2832.749,1,6,0.100,24171.000,0.200,15426.000,0.300,1944.000,0.500,470.000,1.000,296.000,5.000,0
"07/05/06","18:04:49","AMMA06",41997.000,"cc",28313.336,6.00,2831.334,1,6,0.100,23972.000,0.200,15135.000,0.300,2006.000,0.500,541.000,1.000,343.000,5.000,0
"07/05/06","18:04:55","AMMA06",42434.000,"cc",28331.846,6.00,2833.185,1,6,0.100,24036.000,0.200,15332.000,0.300,2087.000,0.500,644.000,1.000,335.000,5.000,0
"07/05/06","18:05:01","AMMA06",43045.000,"cc",28294.633,6.00,2829.463,1,6,0.100,24470.000,0.200,15485.000,0.300,2132.000,0.500,579.000,1.000,379.000,5.000,0
"07/05/06","18:05:07","AMMA06",42541.000,"cc",28278.779,6.00,2827.878,1,6,0.100,24280.000,0.200,15408.000,0.300,1985.000,0.500,544.000,1.000,324.000,5.000,0
"07/05/06","18:05:13","AMMA06",42638.000,"cc",28304.051,6.00,2830.405,1,6,0.100,24091.000,0.200,15483.000,0.300,2158.000,0.500,590.000,1.000,316.000,5.000,0
"07/05/06","18:05:19","AMMA06",44110.000,"cc",28306.176,6.00,2830.618,1,6,0.100,24652.000,0.200,15793.000,0.300,2465.000,0.500,781.000,1.000,419.000,5.000,0
"07/05/06","18:05:25","AMMA06",43210.000,"cc",28339.988,6.00,2833.999,1,6,0.100,24323.000,0.200,15635.000,0.300,2232.000,0.500,639.000,1.000,381.000,5.000,0
"07/05/06","18:05:31","AMMA06",43632.000,"cc",28331.611,6.00,2833.161,1,6,0.100,24759.000,0.200,15538.000,0.300,2258.000,0.500,673.000,1.000,404.000,5.000,0
"07/05/06","18:05:37","AMMA06",43810.000,"cc",28319.408,6.00,2831.941,1,6,0.100,24420.000,0.200,15758.000,0.300,2417.000,0.500,790.000,1.000,425.000,5.000,0
"07/05/06","18:05:43","AMMA06",42485.000,"cc",28322.568,6.00,2832.257,1,6,0.100,24043.000,0.200,15493.000,0.300,2072.000,0.500,546.000,1.000,331.000,5.000,0
"07/05/06","18:05:49","AMMA06",42261.000,"cc",28302.061,6.00,2830.206,1,6,0.100,23895.000,0.200,15472.000,0.300,2065.000,0.500,501.000,1.000,328.000,5.000,0
"07/05/06","18:05:55","AMMA06",43572.000,"cc",28343.004,6.00,2834.301,1,6,0.100,24432.000,0.200,15691.000,0.300,2361.000,0.500,694.000,1.000,394.000,5.000,0
"07/05/06","18:06:01","AMMA06",43313.000,"cc",28322.332,6.00,2832.233,1,6,0.100,24228.000,0.200,15748.000,0.300,2358.000,0.500,600.000,1.000,379.000,5.000,0
"07/05/06","18:06:07","AMMA06",42821.000,"cc",28280.145,6.00,2828.015,1,6,0.100,24117.000,0.200,15578.000,0.300,2182.000,0.500,592.000,1.000,352.000,5.000,0
"07/05/06","18:06:13","AMMA06",43251.000,"cc",28340.203,6.00,2834.021,1,6,0.100,24245.000,0.200,15724.000,0.300,2270.000,0.500,634.000,1.000,378.000,5.000,0
"07/05/06","18:06:19","AMMA06",44230.000,"cc",28348.094,6.00,2834.810,1,6,0.100,24751.000,0.200,15918.000,0.300,2425.000,0.500,708.000,1.000,428.000,5.000,0
"07/05/06","18:06:25","AMMA06",44048.000,"cc",28280.592,6.00,2828.059,1,6,0.100,24785.000,0.200,15890.000,0.300,2299.000,0.500,681.000,1.000,393.000,5.000,0
"07/05/06","18:06:31","AMMA06",43449.000,"cc",28282.000,6.00,2828.200,1,6,0.100,24346.000,0.200,15834.000,0.300,2244.000,0.500,661.000,1.000,364.000,5.000,0
"07/05/06","18:06:37","AMMA06",43917.000,"cc",28287.490,6.00,2828.749,1,6,0.100,24738.000,0.200,15828.000,0.300,2281.000,0.500,705.000,1.000,365.000,5.000,0
"07/05/06","18:06:43","AMMA06",45525.000,"cc",28312.940,6.00,2831.294,1,6,0.100,24959.000,0.200,16460.000,0.300,2675.000,0.500,948.000,1.000,483.000,5.000,0
"07/05/06","18:06:49","AMMA06",44390.000,"cc",28348.002,6.00,2834.800,1,6,0.100,24767.000,0.200,16045.000,0.300,2387.000,0.500,788.000,1.000,403.000,5.000,0
"07/05/06","18:06:55","AMMA06",45085.000,"cc",28351.336,6.00,2835.134,1,6,0.100,25057.000,0.200,16167.000,0.300,2541.000,0.500,873.000,1.000,447.000,5.000,0
"07/05/06","18:07:01","AMMA06",42550.000,"cc",28308.746,6.00,2830.875,1,6,0.100,24046.000,0.200,15429.000,0.300,2133.000,0.500,582.000,1.000,360.000,5.000,0
"07/05/06","18:07:07","AMMA06",45983.000,"cc",28336.348,6.00,2833.635,1,6,0.100,25457.000,0.200,16163.000,0.300,2880.000,0.500,931.000,1.000,552.000,5.000,0
"07/05/06","18:07:13","AMMA06",44346.000,"cc",28320.684,6.00,2832.069,1,6,0.100,24891.000,0.200,15809.000,0.300,2493.000,0.500,744.000,1.000,409.000,5.000,0
"07/05/06","18:07:19","AMMA06",43569.000,"cc",28304.945,6.00,2830.495,1,6,0.100,24381.000,0.200,15816.000,0.300,2256.000,0.500,710.000,1.000,406.000,5.000,0
"07/05/06","18:07:25","AMMA06",43853.000,"cc",28320.065,6.00,2832.007,1,6,0.100,24456.000,0.200,15927.000,0.300,2365.000,0.500,716.000,1.000,389.000,5.000,0
"07/05/06","18:07:31","AMMA06",43023.000,"cc",28269.527,6.00,2826.953,1,6,0.100,23962.000,0.200,15807.000,0.300,2229.000,0.500,643.000,1.000,382.000,5.000,0
"07/05/06","18:07:37","AMMA06",42832.000,"cc",28311.504,6.00,2831.151,1,6,0.100,24100.000,0.200,15646.000,0.300,2151.000,0.500,585.000,1.000,350.000,5.000,0
"07/05/06","18:07:43","AMMA06",42195.000,"cc",28341.309,6.00,2834.131,1,6,0.100,23793.000,0.200,15510.000,0.300,1995.000,0.500,570.000,1.000,327.000,5.000,0
"07/05/06","18:07:49","AMMA06",43314.000,"cc",28315.098,6.00,2831.510,1,6,0.100,24252.000,0.200,15632.000,0.300,2312.000,0.500,754.000,1.000,364.000,5.000,0
"07/05/06","18:07:55","AMMA06",43063.000,"cc",28293.891,6.00,2829.389,1,6,0.100,24224.000,0.200,15631.000,0.300,2195.000,0.500,631.000,1.000,382.000,5.000,0
"07/05/06","18:08:01","AMMA06",42656.000,"cc",28338.104,6.00,2833.811,1,6,0.100,24224.000,0.200,15323.000,0.300,2172.000,0.500,600.000,1.000,337.000,5.000,0
"07/05/06","18:08:07","AMMA06",43298.000,"cc",28300.652,6.00,2830.065,1,6,0.100,24148.000,0.200,15823.000,0.300,2318.000,0.500,651.000,1.000,358.000,5.000,0
"07/05/06","18:08:13","AMMA06",43066.000,"cc",28299.734,6.00,2829.974,1,6,0.100,24409.000,0.200,15621.000,0.300,2087.000,0.500,587.000,1.000,362.000,5.000,0
"07/05/06","18:08:19","AMMA06",43475.000,"cc",28361.852,6.00,2836.185,1,6,0.100,24521.000,0.200,15554.000,0.300,2289.000,0.500,718.000,1.000,393.000,5.000,0
"07/05/06","18:08:25","AMMA06",44090.000,"cc",28307.588,6.00,2830.759,1,6,0.100,24712.000,0.200,15880.000,0.300,2357.000,0.500,688.000,1.000,453.000,5.000,0
"07/05/06","18:08:31","AMMA06",44453.000,"cc",28358.773,6.00,2835.877,1,6,0.100,24891.000,0.200,15857.000,0.300,2446.000,0.500,814.000,1.000,445.000,5.000,0
"07/05/06","18:08:37","AMMA06",42705.000,"cc",28273.475,6.00,2827.348,1,6,0.100,24202.000,0.200,15413.000,0.300,2129.000,0.500,603.000,1.000,358.000,5.000,0
"07/05/06","18:08:43","AMMA06",42459.000,"cc",28286.783,6.00,2828.679,1,6,0.100,24026.000,0.200,15503.000,0.300,2074.000,0.500,520.000,1.000,336.000,5.000,0
"07/05/06","18:08:49","AMMA06",43436.000,"cc",28311.898,6.00,2831.190,1,6,0.100,24268.000,0.200,15652.000,0.300,2402.000,0.500,727.000,1.000,387.000,5.000,0
"07/05/06","18:08:55","AMMA06",42972.000,"cc",28323.315,6.00,2832.332,1,6,0.100,24117.000,0.200,15707.000,0.300,2162.000,0.500,633.000,1.000,353.000,5.000,0
"07/05/06","18:09:01","AMMA06",43823.000,"cc",28314.066,6.00,2831.407,1,6,0.100,24609.000,0.200,15891.000,0.300,2271.000,0.500,683.000,1.000,369.000,5.000,0
"07/05/06","18:09:07","AMMA06",42006.000,"cc",28327.877,6.00,2832.788,1,6,0.100,23740.000,0.200,15511.000,0.300,1919.000,0.500,527.000,1.000,309.000,5.000,0
"07/05/06","18:09:13","AMMA06",45489.000,"cc",28319.135,6.00,2831.914,1,6,0.100,25410.000,0.200,16085.000,0.300,2676.000,0.500,864.000,1.000,454.000,5.000,0
"07/05/06","18:09:19","AMMA06",45162.000,"cc",28329.996,6.00,2833.000,1,6,0.100,25131.000,0.200,16372.000,0.300,2508.000,0.500,736.000,1.000,415.000,5.000,0
"07/05/06","18:09:25","AMMA06",43640.000,"cc",28328.775,6.00,2832.878,1,6,0.100,24423.000,0.200,15845.000,0.300,2334.000,0.500,669.000,1.000,369.000,5.000,0
"07/05/06","18:09:31","AMMA06",43150.000,"cc",28290.318,6.00,2829.032,1,6,0.100,24212.000,0.200,15800.000,0.300,2246.000,0.500,534.000,1.000,358.000,5.000,0
"07/05/06","18:09:37","AMMA06",44421.000,"cc",28347.914,6.00,2834.792,1,6,0.100,24619.000,0.200,16180.000,0.300,2462.000,0.500,752.000,1.000,408.000,5.000,0
"07/05/06","18:09:43","AMMA06",44396.000,"cc",28309.727,6.00,2830.973,1,6,0.100,24605.000,0.200,16111.000,0.300,2481.000,0.500,802.000,1.000,397.000,5.000,0
"07/05/06","18:09:49","AMMA06",44048.000,"cc",28270.516,6.00,2827.052,1,6,0.100,24484.000,0.200,15962.000,0.300,2430.000,0.500,734.000,1.000,438.000,5.000,0
"07/05/06","18:09:55","AMMA06",48115.000,"cc",28354.238,6.00,2835.424,1,6,0.100,27230.000,0.200,16662.000,0.300,2777.000,0.500,901.000,1.000,545.000,5.000,0
"07/05/06","18:10:01","AMMA06",43647.000,"cc",28293.666,6.00,2829.367,1,6,0.100,24432.000,0.200,15917.000,0.300,2281.000,0.500,649.000,1.000,368.000,5.000,0
"07/05/06","18:10:07","AMMA06",46702.000,"cc",28305.027,6.00,2830.503,1,6,0.100,26712.000,0.200,16545.000,0.300,2405.000,0.500,642.000,1.000,398.000,5.000,0
"07/05/06","18:10:13","AMMA06",49668.000,"cc",28296.119,6.00,2829.612,1,6,0.100,27336.000,0.200,17277.000,0.300,3315.000,0.500,1209.000,1.000,531.000,5.000,0
"07/05/06","18:10:19","AMMA06",47555.000,"cc",28323.328,6.00,2832.333,1,6,0.100,25739.000,0.200,16929.000,0.300,3200.000,0.500,1143.000,1.000,544.000,5.000,0
"07/05/06","18:10:25","AMMA06",45280.000,"cc",28336.977,6.00,2833.698,1,6,0.100,24981.000,0.200,16422.000,0.300,2580.000,0.500,821.000,1.000,476.000,5.000,0
"07/05/06","18:10:31","AMMA06",43281.000,"cc",28345.729,6.00,2834.573,1,6,0.100,24201.000,0.200,15947.000,0.300,2139.000,0.500,616.000,1.000,378.000,5.000,0
"07/05/06","18:10:37","AMMA06",44463.000,"cc",28329.193,6.00,2832.919,1,6,0.100,24481.000,0.200,16286.000,0.300,2491.000,0.500,780.000,1.000,425.000,5.000,0
"07/05/06","18:10:43","AMMA06",43517.000,"cc",28266.051,6.00,2826.605,1,6,0.100,24221.000,0.200,16073.000,0.300,2241.000,0.500,623.000,1.000,359.000,5.000,0
"07/05/06","18:10:49","AMMA06",46371.000,"cc",28315.660,6.00,2831.566,1,6,0.100,25564.000,0.200,16625.000,0.300,2763.000,0.500,925.000,1.000,494.000,5.000,0
"07/05/06","18:10:55","AMMA06",45575.000,"cc",28300.512,6.00,2830.051,1,6,0.100,25264.000,0.200,16238.000,0.300,2759.000,0.500,870.000,1.000,444.000,5.000,0
"07/05/06","18:11:01","AMMA06",43435.000,"cc",28332.533,6.00,2833.253,1,6,0.100,24207.000,0.200,15885.000,0.300,2311.000,0.500,656.000,1.000,376.000,5.000,0
"07/05/06","18:11:07","AMMA06",43545.000,"cc",28348.578,6.00,2834.858,1,6,0.100,24152.000,0.200,16013.000,0.300,2258.000,0.500,678.000,1.000,444.000,5.000,0
"07/05/06","18:11:13","AMMA06",44010.000,"cc",28304.500,6.00,2830.450,1,6,0.100,24441.000,0.200,16268.000,0.300,2324.000,0.500,585.000,1.000,392.000,5.000,0
"07/05/06","18:11:19","AMMA06",42849.000,"cc",28302.594,6.00,2830.260,1,6,0.100,23924.000,0.200,15798.000,0.300,2205.000,0.500,560.000,1.000,362.000,5.000,0
"07/05/06","18:11:25","AMMA06",42970.000,"cc",28336.863,6.00,2833.687,1,6,0.100,24121.000,0.200,15750.000,0.300,2195.000,0.500,558.000,1.000,346.000,5.000,0
"07/05/06","18:11:31","AMMA06",42706.000,"cc",28309.674,6.00,2830.968,1,6,0.100,23792.000,0.200,15890.000,0.300,2177.000,0.500,522.000,1.000,325.000,5.000,0
"07/05/06","18:11:37","AMMA06",42775.000,"cc",28366.088,6.00,2836.609,1,6,0.100,24028.000,0.200,15849.000,0.300,2071.000,0.500,504.000,1.000,323.000,5.000,0
"07/05/06","18:11:43","AMMA06",42917.000,"cc",28362.850,6.00,2836.285,1,6,0.100,23848.000,0.200,15930.000,0.300,2224.000,0.500,572.000,1.000,343.000,5.000,0
"07/05/06","18:11:49","AMMA06",42731.000,"cc",28310.316,6.00,2831.032,1,6,0.100,23764.000,0.200,15668.000,0.300,2277.000,0.500,649.000,1.000,373.000,5.000,0
"07/05/06","18:11:55","AMMA06",44072.000,"cc",28234.326,6.00,2823.433,1,6,0.100,24302.000,0.200,16260.000,0.300,2426.000,0.500,664.000,1.000,420.000,5.000,0
"07/05/06","18:12:01","AMMA06",43326.000,"cc",28282.135,6.00,2828.214,1,6,0.100,24096.000,0.200,16063.000,0.300,2284.000,0.500,559.000,1.000,324.000,5.000,0
"07/05/06","18:12:07","AMMA06",44700.000,"cc",28330.453,6.00,2833.045,1,6,0.100,24337.000,0.200,16640.000,0.300,2555.000,0.500,759.000,1.000,409.000,5.000,0
"07/05/06","18:12:13","AMMA06",47257.000,"cc",28323.826,6.00,2832.383,1,6,0.100,26522.000,0.200,16850.000,0.300,2601.000,0.500,838.000,1.000,446.000,5.000,0
"07/05/06","18:12:19","AMMA06",45985.000,"cc",28345.008,6.00,2834.501,1,6,0.100,26096.000,0.200,16213.000,0.300,2527.000,0.500,746.000,1.000,403.000,5.000,0
"07/05/06","18:12:25","AMMA06",43638.000,"cc",28352.557,6.00,2835.256,1,6,0.100,24241.000,0.200,16044.000,0.300,2283.000,0.500,696.000,1.000,374.000,5.000,0
"07/05/06","18:12:31","AMMA06",43827.000,"cc",28295.986,6.00,2829.599,1,6,0.100,24399.000,0.200,16076.000,0.300,2361.000,0.500,611.000,1.000,380.000,5.000,0
"07/05/06","18:12:37","AMMA06",43091.000,"cc",28291.430,6.00,2829.143,1,6,0.100,24024.000,0.200,16007.000,0.300,2153.000,0.500,568.000,1.000,339.000,5.000,0
"07/05/06","18:12:43","AMMA06",43245.000,"cc",28328.750,6.00,2832.875,1,6,0.100,24216.000,0.200,15878.000,0.300,2213.000,0.500,573.000,1.000,365.000,5.000,0
"07/05/06","18:12:49","AMMA06",42612.000,"cc",28284.477,6.00,2828.448,1,6,0.100,23807.000,0.200,15778.000,0.300,2206.000,0.500,511.000,1.000,310.000,5.000,0
"07/05/06","18:12:55","AMMA06",42734.000,"cc",28344.322,6.00,2834.432,1,6,0.100,23892.000,0.200,15848.000,0.300,2085.000,0.500,566.000,1.000,343.000,5.000,0
"07/05/06","18:13:01","AMMA06",42650.000,"cc",28316.404,6.00,2831.641,1,6,0.100,23647.000,0.200,16082.000,0.300,2078.000,0.500,513.000,1.000,330.000,5.000,0
"07/05/06","18:13:07","AMMA06",42652.000,"cc",28331.775,6.00,2833.178,1,6,0.100,23720.000,0.200,15917.000,0.300,2142.000,0.500,549.000,1.000,324.000,5.000,0
"07/05/06","18:13:13","AMMA06",42536.000,"cc",28297.451,6.00,2829.745,1,6,0.100,23553.000,0.200,15956.000,0.300,2208.000,0.500,471.000,1.000,348.000,5.000,0
"07/05/06","18:13:19","AMMA06",43104.000,"cc",28340.254,6.00,2834.026,1,6,0.100,23911.000,0.200,16045.000,0.300,2200.000,0.500,566.000,1.000,382.000,5.000,0
"07/05/06","18:13:25","AMMA06",43057.000,"cc",28325.160,6.00,2832.516,1,6,0.100,24036.000,0.200,15884.000,0.300,2193.000,0.500,577.000,1.000,367.000,5.000,0
"07/05/06","18:13:31","AMMA06",44101.000,"cc",28308.232,6.00,2830.824,1,6,0.100,24956.000,0.200,16034.000,0.300,2229.000,0.500,540.000,1.000,342.000,5.000,0
"07/05/06","18:13:37","AMMA06",43755.000,"cc",28353.561,6.00,2835.356,1,6,0.100,24608.000,0.200,16095.000,0.300,2181.000,0.500,534.000,1.000,337.000,5.000,0
"07/05/06","18:13:43","AMMA06",43020.000,"cc",28349.412,6.00,2834.941,1,6,0.100,23923.000,0.200,16014.000,0.300,2195.000,0.500,566.000,1.000,322.000,5.000,0
"07/05/06","18:13:49","AMMA06",42937.000,"cc",28264.938,6.00,2826.494,1,6,0.100,23708.000,0.200,15972.000,0.300,2247.000,0.500,610.000,1.000,400.000,5.000,0
"07/05/06","18:13:55","AMMA06",42387.000,"cc",28330.824,6.00,2833.083,1,6,0.100,23901.000,0.200,15553.000,0.300,2122.000,0.500,495.000,1.000,316.000,5.000,0
"07/05/06","18:14:01","AMMA06",42811.000,"cc",28283.447,6.00,2828.345,1,6,0.100,23747.000,0.200,16020.000,0.300,2197.000,0.500,520.000,1.000,327.000,5.000,0
"07/05/06","18:14:07","AMMA06",42740.000,"cc",28310.641,6.00,2831.064,1,6,0.100,23732.000,0.200,15842.000,0.300,2227.000,0.500,590.000,1.000,349.000,5.000,0
"07/05/06","18:14:13","AMMA06",42714.000,"cc",28309.063,6.00,2830.907,1,6,0.100,23671.000,0.200,16013.000,0.300,2136.000,0.500,554.000,1.000,340.000,5.000,0